DW8913 Weather Reports


Display with metric or nautical units.
time (UTC)temp
F
wind
direction
speed
MPH
gust
MPH
rain 1hr
in
rain 24hr
in
rain mn
in
humidity
%
barometer
mb
20260902094526 73 224 0.0 3.0 0.00 0.07 0.00 94 1016.7
20260902093108 73 119 0.0 2.0 0.00 0.07 0.00 93 1016.5
20260902091534 73 241 0.0 3.0 0.00 0.07 0.00 93 1016.4
20260902090010 73 34 0.0 3.0 0.00 0.07 0.00 93 1016.5
20260902084550 73 36 0.0 5.0 0.00 0.07 0.00 93 1016.4
20260902083020 73 267 1.0 4.0 0.00 0.07 0.00 93 1016.3
20260902081558 73 238 1.0 4.0 0.00 0.07 0.00 93 1016.1
20260902080029 73 163 1.0 3.0 0.00 0.07 0.00 92 1016.0
20260902074605 73 279 0.0 3.0 0.00 0.07 0.00 91 1016.0
20260902073045 73 60 0.0 4.0 0.00 0.07 0.00 90 1015.6
20260902071511 73 187 0.0 5.0 0.00 0.07 0.00 90 1015.7
20260902070054 73 243 1.0 3.0 0.00 0.07 0.00 90 1015.7
20260902064536 73 265 0.0 3.0 0.00 0.07 0.00 90 1015.8
20260902063108 73 44 0.0 2.0 0.00 0.07 0.00 90 1015.6
20260902061541 73 305 0.0 4.0 0.00 0.07 0.00 89 1015.8
20260902060009 74 44 0.0 1.0 0.00 0.07 0.00 89 1015.9
20260902054554 74 215 0.0 3.0 0.00 0.07 0.00 88 1015.5
20260902053022 74 85 0.0 1.0 0.00 0.07 0.00 88 1015.3
20260902051610 75 34 0.0 2.0 0.00 0.07 0.00 88 1015.6
20260902050040 75 153 0.0 0.0 0.00 0.07 0.00 87 1015.6
20260902044508 75 116 0.0 2.0 0.00 0.07 0.00 86 1015.4
20260902043048 75 175 0.0 4.0 0.00 0.07 0.00 86 1015.3
20260902041533 74 160 0.0 2.0 0.00 0.07 0.00 86 1015.6
20260902040052 74 160 1.0 4.0 0.00 0.07 0.00 85 1016.0
20260902034521 73 164 0.0 2.0 0.00 0.07 0.07 87 1015.8
20260902033102 73 33 0.0 3.0 0.01 0.07 0.07 87 1015.8
20260902031529 73 228 1.0 6.0 0.07 0.07 0.07 88 1016.3
20260902030110 73 197 1.0 5.0 0.07 0.07 0.07 89 1016.2
20260902024648 72 6 3.0 8.0 0.07 0.07 0.07 89 1016.8
20260902023006 74 14 5.0 14.0 0.05 0.05 0.05 85 1016.9
20260902021545 81 30 2.0 5.0 0.00 0.00 0.00 85 1015.2
20260902020032 81 173 0.0 3.0 0.00 0.00 0.00 84 1013.4
20260902014608 81 167 0.0 4.0 0.00 0.00 0.00 84 1013.3
20260902013033 81 158 0.0 3.0 0.00 0.00 0.00 84 1012.6
20260902011608 81 117 0.0 3.0 0.00 0.00 0.00 82 1012.8
20260902010038 81 150 1.0 4.0 0.00 0.00 0.00 83 1012.3
20260902004514 80 142 0.0 2.0 0.00 0.00 0.00 85 1012.4
20260902003055 81 161 0.0 5.0 0.00 0.00 0.00 85 1012.6
20260902001526 81 146 0.0 0.0 0.00 0.00 0.00 84 1012.5
20260902000108 81 147 0.0 3.0 0.00 0.00 0.00 85 1012.4
20260901234534 81 71 0.0 3.0 0.00 0.00 0.00 84 1012.5
20260901233112 82 171 0.0 2.0 0.00 0.00 0.00 81 1012.8
20260901231547 82 127 1.0 4.0 0.00 0.00 0.00 80 1012.8
20260901230020 81 144 0.0 3.0 0.00 0.00 0.00 84 1012.8
20260901224557 81 131 1.0 7.0 0.00 0.00 0.00 85 1012.7
20260901223041 82 130 1.0 3.0 0.00 0.00 0.00 83 1012.8
20260901221615 83 78 1.0 4.0 0.00 0.00 0.00 83 1012.9
20260901220048 83 138 2.0 5.0 0.00 0.00 0.00 83 1013.1
20260901214505 83 99 2.0 6.0 0.00 0.00 0.00 82 1013.0
20260901213043 83 65 1.0 5.0 0.00 0.00 0.00 82 1013.2
20260901211514 83 186 1.0 6.0 0.00 0.00 0.00 82 1013.2
20260901210111 83 98 1.0 6.0 0.00 0.00 0.00 81 1013.3
20260901204538 84 113 3.0 8.0 0.00 0.00 0.00 81 1013.2
20260901203012 84 65 2.0 8.0 0.00 0.00 0.00 80 1013.2
20260901201546 84 169 3.0 8.0 0.00 0.00 0.00 79 1013.1
20260901200014 85 106 2.0 8.0 0.00 0.00 0.00 76 1013.6
20260901194603 86 158 1.0 5.0 0.00 0.00 0.00 75 1013.9
20260901193019 87 136 0.0 7.0 0.00 0.00 0.00 75 1013.7
20260901191606 87 166 2.0 5.0 0.00 0.00 0.00 73 1013.7
20260901190042 89 128 0.0 3.0 0.00 0.00 0.00 71 1013.8
20260901184607 88 87 0.0 4.0 0.00 0.00 0.00 68 1014.0
20260901183040 88 51 0.0 3.0 0.00 0.00 0.00 68 1014.1
20260901181511 88 55 0.0 5.0 0.00 0.00 0.00 68 1014.3
20260901180055 88 20 0.0 2.0 0.00 0.00 0.00 67 1014.3
20260901174531 89 251 0.0 2.0 0.00 0.00 0.00 64 1014.6
20260901173105 92 55 0.0 4.0 0.00 0.00 0.00 61 1014.6
20260901171533 93 73 1.0 4.0 0.00 0.00 0.00 59 1014.6
20260901170005 92 180 1.0 6.0 0.00 0.00 0.00 63 1014.7
20260901164548 91 76 1.0 3.0 0.00 0.00 0.00 65 1014.8
20260901163024 90 221 1.0 4.0 0.00 0.00 0.00 65 1015.0
20260901161542 88 179 0.0 2.0 0.00 0.00 0.00 68 1015.1
20260901160016 87 162 1.0 4.0 0.00 0.00 0.00 68 1015.2
20260901154556 87 217 0.0 5.0 0.00 0.00 0.00 67 1015.2
20260901153034 89 158 0.0 4.0 0.00 0.00 0.00 64 1015.4
20260901151611 89 172 0.0 4.0 0.00 0.00 0.00 62 1015.3
20260901150044 88 123 0.0 5.0 0.00 0.00 0.00 64 1015.2
20260901144511 90 58 1.0 7.0 0.00 0.00 0.00 61 1015.3
20260901143117 89 186 2.0 6.0 0.00 0.00 0.00 64 1015.5
20260901141525 89 165 0.0 3.0 0.00 0.00 0.00 67 1015.4
20260901140112 87 172 1.0 4.0 0.00 0.00 0.00 70 1015.6
20260901134541 87 92 0.0 2.0 0.00 0.00 0.00 73 1015.7
20260901133010 86 78 0.0 4.0 0.00 0.00 0.00 75 1015.7
20260901131549 84 75 1.0 4.0 0.00 0.00 0.00 78 1015.8
20260901130017 83 158 0.0 3.0 0.00 0.00 0.00 82 1016.0
20260901124556 81 255 0.0 3.0 0.00 0.00 0.00 87 1016.1
20260901123024 79 57 0.0 1.0 0.00 0.00 0.00 91 1016.1
20260901121602 78 178 0.0 2.0 0.00 0.00 0.00 93 1016.3
20260901120027 77 159 0.0 3.0 0.00 0.00 0.00 94 1016.0
20260901114504 76 162 0.0 0.0 0.00 0.00 0.00 94 1016.2
20260901113055 76 26 0.0 0.0 0.00 0.00 0.00 94 1016.3
20260901111524 76 145 0.0 0.0 0.00 0.00 0.00 94 1016.2
20260901110107 75 122 0.0 0.0 0.00 0.00 0.00 94 1016.1
20260901104544 75 111 0.0 0.0 0.00 0.00 0.00 94 1015.8
20260901103005 75 134 0.0 2.0 0.00 0.00 0.00 93 1015.6
20260901101553 75 155 0.0 2.0 0.00 0.00 0.00 93 1015.7
20260901100021 75 162 0.0 0.0 0.00 0.00 0.00 93 1015.6